Regional Weather Roundup
Issued by NWS Albany, NY

Home | Current Version | Previous Version | Text Only | Print | Product List | Glossary On
Versions: 1 2 3 4 5 6 7 8 9 10 11 12 13 14 15 16 17 18 19 20 21 22 23 24 25 26 27 28 29 30 31 32 33 34 35 36 37 38 39 40 41 42 43 44 45 46 47 48 49 50
000
ASUS41 KALY 261310
RWRALY

NEW YORK STATE HOURLY WEATHER ROUNDUP
NATIONAL WEATHER SERVICE ALBANY NY
800 AM EST WED NOV 26 2014

NOTE: "FAIR" INDICATES FEW OR NO CLOUDS BELOW 12,000 FEET WITH NO
SIGNIFICANT WEATHER AND/OR NO OBSTRUCTIONS TO VISIBILITY.

NYZ032-033-038>043-046>054-057>066-NYZ062>081-261400-
EAST


CITY           SKY/WX    TMP DP  RH WIND       PRES   REMARKS
ALBANY         CLOUDY    37  27  67 N3        30.24R
GLENS FALLS    CLOUDY    37  24  59 N5        30.23R WCI  33
POUGHKEEPSIE   CLOUDY    41  26  55 N9        30.19R
NEWBURGH       LGT SNOW  37  30  75 NE8       30.16S FOG     WCI  31
MONTGOMERY     CLOUDY    39  29  67 NE8       30.15S WCI  33
WHITE PLAINS   RAIN      37  32  82 N10       30.14S WCI  30
ISLIP          CLOUDY    44  33  65 N12       30.13R
NEW YORK CITY  LGT RAIN  41  34  76 NE13      30.17R
CENTRAL PARK   LGT RAIN  40  35  83 NE12G17   30.16F WCI  33
$$

NYZ005>009-017-018-044>046-055-056-261400-
CENTRAL


CITY           SKY/WX    TMP DP  RH WIND       PRES   REMARKS
FULTON         CLOUDY    35  24  64 E3        30.20F
SYRACUSE       CLOUDY    36  26  67 CALM      30.21S
ROME           CLOUDY    35  26  69 NE3       30.23R
ELMIRA         CLOUDY    35  25  66 NE3       30.15F
BINGHAMTON     CLOUDY    31  25  78 E6        30.12F WCI  25
MONTICELLO     CLOUDY    34  27  75 N5        30.12F WCI  30
$$

NYZ026>034-041>043-261400-
NORTH


CITY           SKY/WX    TMP DP  RH WIND       PRES   REMARKS
WATERTOWN      CLOUDY    34  24  67 NE6       30.24S WCI  29
FORT DRUM      NOT AVBL
MASSENA        CLOUDY    30  20  66 CALM      30.27S
SARANAC LAKE   CLOUDY    28  22  78 CALM      30.15S
PLATTSBURGH    CLOUDY    34  23  64 N10       30.25R WCI  26
$$

NYZ001>004-010>016-019>021-261400-
WEST


CITY           SKY/WX    TMP DP  RH WIND       PRES   REMARKS
NIAGARA FALLS  CLOUDY    31  25  78 CALM      30.19R
BUFFALO        CLOUDY    31  24  75 CALM      30.19R
DUNKIRK        CLOUDY    33  24  69 NE6       30.17R WCI  28
JAMESTOWN      CLOUDY    30  25  80 NE7       30.08F WCI  23
WELLSVILLE     CLOUDY    29  22  75 E7        30.11R WCI  22
ROCHESTER      CLOUDY    34  25  69 CALM      30.19F
PENN YAN       CLOUDY    33  24  69 CALM      30.16F
$$

             KEY
       WCI = WIND CHILL INDEX
       VSB = VISIBILITY
       HX  = HEAT INDEX
$$



USA.gov is the U.S. government's official web portal to all federal, state and local government web resources and services.